WJA416 CYYJ-CYLW

Flight info

Callsign WJA416
Flight time 0h 38m
Altitude 29000
Route HUH DCT YDC PIGLU5
Aircraft B738/M-SDE2E3FGHIRWXY/LB1

Departure

Time 2026-04-26 03:10
Airport Victoria International Airport (CYYJ)

Arrival

Time 2026-04-26 03:48
Airport Kelowna International Airport (CYLW)
Time Latitude Longitude Altitude Speed Heading
2026-04-26 02:52 48.64113 -123.42964 50 ft 0 kts 227°
2026-04-26 02:58 48.64123 -123.42948 54 ft 2 kts 229°
2026-04-26 02:59 48.64133 -123.42929 51 ft 2 kts 230°
2026-04-26 02:59 48.64144 -123.42910 52 ft 2 kts 232°
2026-04-26 02:59 48.64154 -123.42890 50 ft 2 kts 235°
2026-04-26 02:59 48.64163 -123.42869 51 ft 2 kts 240°
2026-04-26 03:00 48.64170 -123.42847 51 ft 2 kts 251°
2026-04-26 03:00 48.64173 -123.42822 58 ft 2 kts 281°
2026-04-26 03:00 48.64167 -123.42804 52 ft 1 kts 316°
2026-04-26 03:00 48.64166 -123.42802 50 ft 0 kts 316°
2026-04-26 03:03 48.64204 -123.42858 56 ft 16 kts 315°
2026-04-26 03:03 48.64254 -123.43069 53 ft 27 kts 273°
2026-04-26 03:03 48.64205 -123.43329 59 ft 25 kts 273°
2026-04-26 03:04 48.64287 -123.43477 59 ft 18 kts 27°
2026-04-26 03:04 48.64380 -123.43338 60 ft 20 kts 45°
2026-04-26 03:04 48.64504 -123.43157 54 ft 28 kts 43°
2026-04-26 03:04 48.64611 -123.43003 60 ft 0 kts 43°
2026-04-26 03:05 48.64621 -123.42999 55 ft 3 kts 357°
2026-04-26 03:05 48.64642 -123.43039 56 ft 7 kts 315°
2026-04-26 03:05 48.64687 -123.43086 58 ft 9 kts 334°
2026-04-26 03:06 48.64755 -123.43134 56 ft 12 kts 332°
2026-04-26 03:06 48.64846 -123.43208 60 ft 18 kts 331°
2026-04-26 03:06 48.64949 -123.43340 65 ft 22 kts 288°
2026-04-26 03:06 48.64995 -123.43585 57 ft 25 kts 287°
2026-04-26 03:07 48.65037 -123.43804 53 ft 16 kts 286°
2026-04-26 03:07 48.65054 -123.43852 54 ft 1 kts 311°
2026-04-26 03:07 48.65056 -123.43854 55 ft 0 kts 311°
2026-04-26 03:08 48.65057 -123.43856 55 ft 0 kts 311°
2026-04-26 03:08 48.65058 -123.43857 58 ft 1 kts 311°
2026-04-26 03:08 48.65077 -123.43883 52 ft 9 kts 324°
2026-04-26 03:09 48.65167 -123.43886 56 ft 19 kts 62°
2026-04-26 03:09 48.65107 -123.43538 61 ft 69 kts 107°
2026-04-26 03:09 48.64890 -123.42411 62 ft 152 kts 105°
2026-04-26 03:09 48.64570 -123.40654 513 ft 190 kts 106°
2026-04-26 03:10 48.64197 -123.38592 1266 ft 215 kts 104°
2026-04-26 03:10 48.63824 -123.36323 1960 ft 234 kts 102°
2026-04-26 03:10 48.63450 -123.33862 2472 ft 252 kts 102°
2026-04-26 03:10 48.63045 -123.31196 2998 ft 265 kts 102°
2026-04-26 03:11 48.62627 -123.28461 3021 ft 268 kts 102°
2026-04-26 03:11 48.62199 -123.25703 3628 ft 269 kts 102°
2026-04-26 03:11 48.61770 -123.22990 4829 ft 264 kts 101°
2026-04-26 03:11 48.61501 -123.20249 5840 ft 265 kts 83°
2026-04-26 03:12 48.62171 -123.17715 6775 ft 263 kts 50°
2026-04-26 03:12 48.63356 -123.15629 7785 ft 262 kts 48°
2026-04-26 03:12 48.64536 -123.13521 8766 ft 263 kts 48°
2026-04-26 03:12 48.65716 -123.11398 9765 ft 264 kts 48°
2026-04-26 03:13 48.66900 -123.09252 10518 ft 272 kts 49°
2026-04-26 03:13 48.68154 -123.06970 10733 ft 299 kts 49°
2026-04-26 03:13 48.69544 -123.04428 11147 ft 317 kts 49°
2026-04-26 03:13 48.70941 -123.01858 11908 ft 322 kts 49°
2026-04-26 03:14 48.72366 -122.99226 12805 ft 324 kts 49°
2026-04-26 03:14 48.73800 -122.96573 13690 ft 327 kts 50°
2026-04-26 03:14 48.75246 -122.93892 14438 ft 330 kts 49°
2026-04-26 03:14 48.76707 -122.91180 15161 ft 334 kts 49°
2026-04-26 03:15 48.78187 -122.88429 15784 ft 340 kts 49°
2026-04-26 03:15 48.79680 -122.85651 15982 ft 340 kts 49°
2026-04-26 03:15 48.81184 -122.82849 16000 ft 343 kts 49°
2026-04-26 03:15 48.82704 -122.80014 16435 ft 349 kts 49°
2026-04-26 03:16 48.84229 -122.77165 17353 ft 347 kts 49°
2026-04-26 03:16 48.85751 -122.74320 18173 ft 349 kts 49°
2026-04-26 03:16 48.87267 -122.71484 18752 ft 353 kts 49°
2026-04-26 03:16 48.88843 -122.68532 19366 ft 357 kts 49°
2026-04-26 03:17 48.90413 -122.65590 19997 ft 360 kts 48°
2026-04-26 03:17 48.91998 -122.62618 20622 ft 363 kts 48°
2026-04-26 03:17 48.93554 -122.59563 21213 ft 368 kts 53°
2026-04-26 03:17 48.94824 -122.56138 21796 ft 375 kts 62°
2026-04-26 03:18 48.95741 -122.52399 22370 ft 381 kts 68°
2026-04-26 03:18 48.96540 -122.48579 22932 ft 385 kts 69°
2026-04-26 03:18 48.97338 -122.44666 23469 ft 389 kts 69°
2026-04-26 03:18 48.98140 -122.40710 23932 ft 393 kts 69°
2026-04-26 03:19 48.98948 -122.36730 24363 ft 396 kts 69°
2026-04-26 03:19 48.99764 -122.32729 24831 ft 399 kts 69°
2026-04-26 03:19 49.00313 -122.30044 25141 ft 400 kts 69°
2026-04-26 03:19 49.01147 -122.25974 25712 ft 399 kts 69°
2026-04-26 03:20 49.02240 -122.20639 26572 ft 396 kts 69°
2026-04-26 03:20 49.02793 -122.17942 26996 ft 394 kts 69°
2026-04-26 03:20 49.03609 -122.13949 27564 ft 394 kts 69°
2026-04-26 03:20 49.04425 -122.09957 28113 ft 394 kts 69°
2026-04-26 03:21 49.05238 -122.05976 28714 ft 393 kts 69°
2026-04-26 03:21 49.06047 -122.02012 28847 ft 401 kts 69°
2026-04-26 03:21 49.07741 -121.93710 28883 ft 419 kts 69°
2026-04-26 03:22 49.09494 -121.85062 28879 ft 434 kts 69°
2026-04-26 03:22 49.11298 -121.76106 28880 ft 446 kts 69°
2026-04-26 03:23 49.13136 -121.66937 28865 ft 454 kts 70°
2026-04-26 03:23 49.14964 -121.57757 28834 ft 451 kts 70°
2026-04-26 03:24 49.16784 -121.48589 28870 ft 451 kts 70°
2026-04-26 03:24 49.18585 -121.39480 28845 ft 433 kts 70°
2026-04-26 03:25 49.19432 -121.35155 28852 ft 416 kts 70°
2026-04-26 03:25 49.20244 -121.31006 28846 ft 399 kts 70°
2026-04-26 03:25 49.20982 -121.27238 28861 ft 385 kts 70°
2026-04-26 03:25 49.21739 -121.23371 28616 ft 378 kts 70°
2026-04-26 03:26 49.22486 -121.19559 28345 ft 371 kts 70°
2026-04-26 03:26 49.23224 -121.15789 27972 ft 368 kts 70°
2026-04-26 03:26 49.23953 -121.12055 27580 ft 366 kts 70°
2026-04-26 03:26 49.24679 -121.08334 27208 ft 362 kts 70°
2026-04-26 03:27 49.25393 -121.04652 26836 ft 359 kts 70°
2026-04-26 03:27 49.26100 -121.01003 26442 ft 357 kts 70°
2026-04-26 03:27 49.26804 -120.97364 26083 ft 354 kts 70°
2026-04-26 03:27 49.27500 -120.93757 25713 ft 353 kts 70°
2026-04-26 03:28 49.28192 -120.90163 25327 ft 350 kts 70°
2026-04-26 03:28 49.28877 -120.86592 24974 ft 347 kts 70°
2026-04-26 03:28 49.29556 -120.83054 24612 ft 345 kts 69°
2026-04-26 03:28 49.30230 -120.79533 24269 ft 343 kts 69°
2026-04-26 03:29 49.30900 -120.76032 23921 ft 342 kts 69°
2026-04-26 03:29 49.31568 -120.72530 23529 ft 342 kts 69°
2026-04-26 03:29 49.32234 -120.69035 23110 ft 341 kts 69°
2026-04-26 03:29 49.32886 -120.65604 22722 ft 339 kts 69°
2026-04-26 03:30 49.33548 -120.62108 22351 ft 335 kts 69°
2026-04-26 03:30 49.34195 -120.58686 22020 ft 332 kts 69°
2026-04-26 03:30 49.34829 -120.55334 21654 ft 331 kts 69°
2026-04-26 03:30 49.35466 -120.51962 21311 ft 329 kts 69°
2026-04-26 03:31 49.36100 -120.48599 20955 ft 327 kts 69°
2026-04-26 03:31 49.36729 -120.45253 20610 ft 325 kts 69°
2026-04-26 03:31 49.37352 -120.41931 20269 ft 323 kts 69°
2026-04-26 03:31 49.38059 -120.38693 19920 ft 317 kts 58°
2026-04-26 03:32 49.39350 -120.36034 19607 ft 308 kts 40°
2026-04-26 03:32 49.41002 -120.33969 19285 ft 305 kts 35°
2026-04-26 03:32 49.42696 -120.32017 18947 ft 305 kts 34°
2026-04-26 03:32 49.44400 -120.30071 18588 ft 305 kts 34°
2026-04-26 03:33 49.46099 -120.28117 18264 ft 304 kts 35°
2026-04-26 03:33 49.47782 -120.26165 17897 ft 303 kts 35°
2026-04-26 03:33 49.49457 -120.24211 17538 ft 301 kts 35°
2026-04-26 03:33 49.51113 -120.22272 17220 ft 298 kts 35°
2026-04-26 03:34 49.52757 -120.20342 16890 ft 296 kts 35°
2026-04-26 03:34 49.54387 -120.18425 16560 ft 294 kts 36°
2026-04-26 03:34 49.56011 -120.16512 16242 ft 292 kts 36°
2026-04-26 03:34 49.57618 -120.14618 15908 ft 290 kts 36°
2026-04-26 03:35 49.59218 -120.12733 15595 ft 289 kts 36°
2026-04-26 03:35 49.60810 -120.10859 15261 ft 288 kts 36°
2026-04-26 03:35 49.62396 -120.08991 14956 ft 286 kts 36°
2026-04-26 03:35 49.63975 -120.07130 14638 ft 285 kts 36°
2026-04-26 03:36 49.65549 -120.05272 14321 ft 284 kts 36°
2026-04-26 03:36 49.67117 -120.03422 14007 ft 283 kts 36°
2026-04-26 03:36 49.68672 -120.01582 13780 ft 279 kts 36°
2026-04-26 03:36 49.70210 -119.99763 13476 ft 278 kts 36°
2026-04-26 03:37 49.71742 -119.97949 13157 ft 276 kts 36°
2026-04-26 03:37 49.73259 -119.96151 12864 ft 274 kts 36°
2026-04-26 03:37 49.74752 -119.94380 12775 ft 267 kts 36°
2026-04-26 03:37 49.76203 -119.92657 12656 ft 266 kts 36°
2026-04-26 03:38 49.77664 -119.90922 12553 ft 264 kts 36°
2026-04-26 03:38 49.79117 -119.89196 12390 ft 261 kts 36°
2026-04-26 03:38 49.80519 -119.87527 12336 ft 248 kts 35°
2026-04-26 03:38 49.81845 -119.85946 12246 ft 234 kts 36°
2026-04-26 03:39 49.83101 -119.84449 12134 ft 221 kts 35°
2026-04-26 03:39 49.84275 -119.83005 12003 ft 211 kts 41°
2026-04-26 03:39 49.85042 -119.81025 11452 ft 226 kts 66°
2026-04-26 03:39 49.85556 -119.78598 10553 ft 247 kts 68°
2026-04-26 03:40 49.86105 -119.76028 9870 ft 253 kts 67°
2026-04-26 03:40 49.86662 -119.73438 9300 ft 254 kts 67°
2026-04-26 03:40 49.87185 -119.70842 8795 ft 252 kts 75°
2026-04-26 03:40 49.87067 -119.68133 8289 ft 259 kts 108°
2026-04-26 03:41 49.86042 -119.65857 7874 ft 264 kts 138°
2026-04-26 03:41 49.84402 -119.64623 7509 ft 263 kts 165°
2026-04-26 03:41 49.82609 -119.64104 7177 ft 262 kts 169°
2026-04-26 03:41 49.80860 -119.63374 6798 ft 260 kts 150°
2026-04-26 03:42 49.79532 -119.61587 6481 ft 249 kts 122°
2026-04-26 03:42 49.78831 -119.59240 6166 ft 235 kts 101°
2026-04-26 03:42 49.78667 -119.56792 5867 ft 224 kts 85°
2026-04-26 03:42 49.78864 -119.54464 5561 ft 214 kts 70°
2026-04-26 03:43 49.79507 -119.52434 5302 ft 209 kts 53°
2026-04-26 03:43 49.80445 -119.50731 5050 ft 208 kts 43°
2026-04-26 03:43 49.81494 -119.49149 4779 ft 213 kts 42°
2026-04-26 03:43 49.82550 -119.47546 4525 ft 210 kts 41°
2026-04-26 03:44 49.83494 -119.45883 4284 ft 200 kts 53°
2026-04-26 03:44 49.84105 -119.44010 4053 ft 191 kts 69°
2026-04-26 03:44 49.84460 -119.42076 3819 ft 181 kts 67°
2026-04-26 03:44 49.85011 -119.40395 3550 ft 170 kts 54°
2026-04-26 03:45 49.85755 -119.39034 3299 ft 163 kts 42°
2026-04-26 03:45 49.86601 -119.37951 3084 ft 159 kts 36°
2026-04-26 03:45 49.87575 -119.37110 2820 ft 163 kts 18°
2026-04-26 03:45 49.88661 -119.36881 2718 ft 153 kts 359°
2026-04-26 03:46 49.89707 -119.36998 2574 ft 148 kts 354°
2026-04-26 03:46 49.90734 -119.37115 2357 ft 149 kts 357°
2026-04-26 03:46 49.91758 -119.37240 2179 ft 147 kts 355°
2026-04-26 03:47 49.93784 -119.37526 1672 ft 146 kts 354°
2026-04-26 03:47 49.94766 -119.37658 1434 ft 134 kts 354°
2026-04-26 03:47 49.95567 -119.37774 1419 ft 88 kts 354°
2026-04-26 03:47 49.96033 -119.37840 1421 ft 59 kts 354°
2026-04-26 03:48 49.96422 -119.37895 1418 ft 54 kts 355°
2026-04-26 03:48 49.96606 -119.38013 1418 ft 21 kts 257°
2026-04-26 03:48 49.96527 -119.38046 1421 ft 12 kts 173°
2026-04-26 03:48 49.96444 -119.38034 1418 ft 13 kts 174°
2026-04-26 03:49 49.96344 -119.38020 1419 ft 16 kts 175°
2026-04-26 03:49 49.96213 -119.38003 1419 ft 21 kts 174°
2026-04-26 03:49 49.96049 -119.37980 1419 ft 26 kts 175°
2026-04-26 03:49 49.95859 -119.37953 1419 ft 30 kts 175°
2026-04-26 03:50 49.95640 -119.37924 1421 ft 33 kts 175°
2026-04-26 03:50 49.95397 -119.37889 1418 ft 36 kts 175°
2026-04-26 03:50 49.95185 -119.37859 1421 ft 17 kts 176°
2026-04-26 03:50 49.95112 -119.37908 1419 ft 12 kts 181°
2026-04-26 03:51 49.95041 -119.37916 1419 ft 7 kts 225°
2026-04-26 03:51 49.95049 -119.37985 1419 ft 7 kts 305°
2026-04-26 03:51 49.95061 -119.38009 1419 ft 0 kts 309°